KINEIS-5E

Last updated on Thu Oct 23 2025 00:02:50 GMT+0000 (Coordinated Universal Time)

1 62083U 24219C 25295.51777472 .00001483 00000+0 24249-3 0 9999 2 62083 97.9841 94.5789 0001566 75.4366 284.7015 14.72297579 48798
UTC large
Height (km)
Speed (km/s)
/
Latitude / Longitude
Inclination (degrees)
Orbital Period (minutes)
Azimuth
Elevation
Range (km)
Doppler Factor

Next 0 passes for location: London (51.5072 / 0.1276)

Sorry there are no passes over London.